Home   Weather   Ohrid   Past weeks

Flag for Macedonia, Republic of Past Weather in Ohrid, Macedonia, Republic of — Yesterday and Last 2 Weeks

Now
79 °F

Scattered clouds.


Feels Like: 80 °F
Forecast: 59 / 76 °F
Wind: 10 mph from Southeast

Location: Ohrid Airport

Current Time: Aug 31, 2016 at 6:17:03 PM

Latest Report: Aug 31, 2016 at 4:00 PM


Visibility: N/A

Pressure: 30.12 "Hg (27.82 "Hg at 696m altitude)

Humidity: 51%

Dew Point: 59 °F

Location of OhridLocation

Past Weather in Ohrid — Graph

°F

Ohrid Temperature Yesterday

Maximum temperature yesterday: 81 °F (at 3:30 PM)
Minimum temperature yesterday: 54 °F (at 5:00 AM)
Average temperature yesterday: 68 °F

High & Low Weather Summary for the Past Weeks

 TemperatureHumidityPressure
High84 °F (Aug 17, 2:30 PM)88% (Aug 17, 2:00 AM)30.21 "Hg (Aug 17, 2:00 AM)
Low52 °F (Aug 17, 6:00 AM)14% (Aug 17, 5:30 PM)29.92 "Hg (Aug 17, 2:30 PM)
Average69 °F61%30.07 "Hg
* Reported Aug 16 4:00 PM — Aug 31 4:00 PM, Ohrid, Weather by CustomWeather, © 2016

Note: Actual official high and low records may vary slightly from our data, if they occured in-between our weather recording intervals... More about our weather records

Advertising

Ohrid Weather History for the Previous 24 Hours

Scroll right to see more
 ConditionsComfort  
Time TempWeatherWind HumidityBarometerVisibility
4:00 PM
Wed, Aug 31
79 °FScattered clouds.10 mph51%30.12 "HgN/A
3:30 PM77 °FPassing clouds.7 mph61%30.12 "HgN/A
3:00 PM79 °FPassing clouds.5 mph51%30.12 "HgN/A
2:30 PM79 °FPassing clouds.3 mph48%30.12 "HgN/A
2:00 PM77 °FPassing clouds.6 mph54%30.15 "HgN/A
1:30 PM77 °FPassing clouds.5 mph51%30.15 "HgN/A
1:00 PM75 °FPassing clouds.6 mph54%30.15 "HgN/A
12:30 PM75 °FSunny.8 mph57%30.18 "Hg10 mi
12:00 PM73 °FSunny.9 mph61%30.18 "Hg10 mi
11:30 AM75 °FSunny.7 mph61%30.18 "Hg10 mi
11:00 AM73 °FPassing clouds.7 mph61%30.18 "HgN/A
10:30 AM75 °FSunny.3 mph54%30.18 "Hg10 mi
10:00 AM75 °FPassing clouds.7 mph44%30.18 "HgN/A
9:30 AM75 °FPassing clouds.8 mph44%30.18 "HgN/A
9:00 AM73 °FSunny.9 mph50%30.18 "Hg10 mi
8:30 AM72 °FPassing clouds.8 mph53%30.18 "HgN/A
8:00 AM68 °FSunny.6 mph64%30.18 "Hg10 mi
7:30 AM63 °FSunny.6 mph73%30.18 "Hg10 mi
7:00 AM59 °FClear.6 mph77%30.18 "Hg10 mi
6:30 AM59 °FClear.7 mph77%30.18 "Hg10 mi
6:00 AM59 °FClear.6 mph72%30.18 "Hg10 mi
5:30 AM61 °FClear.7 mph72%30.18 "Hg10 mi
5:00 AM61 °FClear.2 mph72%30.18 "Hg10 mi
9:00 PM
Tue, Aug 30
66 °FPassing clouds.7 mph60%30.09 "HgN/A
8:30 PM70 °FPassing clouds.7 mph57%30.09 "HgN/A
8:00 PM70 °FScattered clouds.5 mph57%30.09 "HgN/A
7:30 PM72 °FScattered clouds.3 mph61%30.07 "HgN/A
7:00 PM75 °FScattered clouds.2 mph47%30.07 "HgN/A
6:00 PM79 °FScattered clouds.3 mph39%30.07 "HgN/A
Weather by CustomWeather, © 2016

See weather overviewHow to use our weather pages